Weather History for Bierset, Belgium

Change the Weather History Date:

Friday, September 6, 2013

  Actual Average Record
Temperature  
Mean Temperature 73 °F -  
Max Temperature 82 °F 63 °F - ()
Min Temperature 64 °F 50 °F - ()
Cooling Degree Days 8    
Growing Degree Days 23 (Base 50)    
Moisture  
Dew Point 59 °F    
Average Humidity 61    
Maximum Humidity 83    
Minimum Humidity 31    
Precipitation  
Precipitation 0.00 in - - ()
Sea Level Pressure  
Sea Level Pressure 29.82 in    
Wind  
Wind Speed 7 mph ()    
Max Wind Speed 20 mph    
Max Gust Speed -    
Visibility 9.9 miles    
Events Rain    
T = Trace of Precipitation, MM = Missing Value Source: Averaged Metar Reports

Daily Weather History Graph

Daily Weather History Graph

Search for Another Location

Airport:

Trip Planner

Search our weather history database for the weather conditions in past years. The results will help you decide how hot, cold, wet, or windy it might be!

Date:

Astronomy

Sep. 06, 2013 Rise Set
Actual Time 6:59 AM CEST 8:12 PM CEST
Civil Twilight 6:26 AM CEST 8:45 PM CEST
Nautical Twilight 5:45 AM CEST 9:26 PM CEST
Astronomical Twilight 5:01 AM CEST 10:10 PM CEST
Moon 8:07 AM CEST (9/6) 8:12 PM CEST (9/6)
Length of Visible Light 14h 19m
Length of Day
13h 12m
New Moon, 1% of the Moon is Illuminated
Sep 6
New Moon
Sep 12
First Quarter
Sep 19
Full
Sep 27
Last Quarter
Oct 5
New

Hourly Weather History & Observations

Time (CEST) Temp. Heat Index Dew Point Humidity Pressure Visibility Wind Dir Wind Speed Gust Speed Precip Events Conditions
12:20 AM 73.4 °F - 57.2 °F 57% 29.83 in - SSE 6.9 mph - N/A   Clear
12:50 AM 73.4 °F - 57.2 °F 57% 29.83 in - SSE 4.6 mph - N/A   Clear
1:20 AM 71.6 °F - 57.2 °F 60% 29.83 in - SSE 6.9 mph - N/A   Clear
1:50 AM 71.6 °F - 59.0 °F 64% 29.83 in - SSE 6.9 mph - N/A   Clear
2:00 AM 72 °F - 58 °F 53% 29.81 in 19 mi SSE 6.7 mph - -   Clear
2:20 AM 71.6 °F - 59.0 °F 64% 29.80 in - SSE 8.1 mph - N/A   Clear
2:50 AM 71.6 °F - 59.0 °F 64% 29.80 in - SSE 6.9 mph - N/A   Clear
3:20 AM 69.8 °F - 59.0 °F 68% 29.80 in - SSE 5.8 mph - N/A   Clear
3:50 AM 69.8 °F - 59.0 °F 68% 29.80 in - SSE 5.8 mph - N/A   Clear
4:20 AM 69.8 °F - 59.0 °F 68% 29.80 in - SSE 5.8 mph - N/A   Clear
4:50 AM 69.8 °F - 59.0 °F 68% 29.80 in - SSE 9.2 mph - N/A   Clear
5:00 AM 70 °F - 59 °F 59% 29.78 in 19 mi SSE 8.9 mph - -   Clear
5:20 AM 69.8 °F - 59.0 °F 68% 29.77 in - SSE 10.4 mph - N/A   Clear
5:50 AM 69.8 °F - 59.0 °F 68% 29.77 in - SSE 8.1 mph - N/A   Clear
6:20 AM 69.8 °F - 57.2 °F 64% 29.77 in - South 9.2 mph - N/A   Clear
6:50 AM 69.8 °F - 57.2 °F 64% 29.77 in - SSE 9.2 mph - N/A   Clear
7:20 AM 69.8 °F - 57.2 °F 64% 29.77 in - SSE 6.9 mph - N/A   Clear
7:50 AM 69.8 °F - 57.2 °F 64% 29.80 in - South 4.6 mph - N/A   Clear
8:00 AM 69 °F - 58 °F 59% 29.78 in 19 mi South 4.5 mph - -   Scattered Clouds
8:20 AM 69.8 °F - 59.0 °F 68% 29.80 in - SW 5.8 mph - N/A   Clear
8:50 AM 69.8 °F - 59.0 °F 68% 29.80 in - WSW 4.6 mph - N/A   Clear
9:20 AM 71.6 °F - 59.0 °F 64% 29.80 in - WSW 3.5 mph - N/A   Clear
9:50 AM 73.4 °F - 59.0 °F 61% 29.80 in - SSW 4.6 mph - N/A   Clear
10:20 AM 75.2 °F - 59.0 °F 57% 29.80 in - South 6.9 mph - N/A   Clear
10:50 AM 77.0 °F - 59.0 °F 54% 29.80 in - South 4.6 mph - N/A   Clear
11:00 AM 77 °F - 58 °F 43% 29.77 in 19 mi South 4.5 mph - -   Scattered Clouds
11:20 AM 78.8 °F - 59.0 °F 51% 29.80 in - SSW 4.6 mph - N/A   Clear
11:50 AM 78.8 °F - 59.0 °F 51% 29.77 in - Variable 2.3 mph - N/A   Clear
12:20 PM 80.6 °F 81.5 °F 60.8 °F 51% 29.77 in - Variable 2.3 mph - N/A   Clear
12:50 PM 80.6 °F 81.1 °F 59.0 °F 48% 29.77 in - Variable 2.3 mph - N/A   Clear
1:20 PM 80.6 °F 81.1 °F 59.0 °F 48% 29.77 in - SW 5.8 mph - N/A   Clear
1:50 PM 80.6 °F 80.8 °F 57.2 °F 45% 29.80 in 6.2 mi SW 13.8 mph - N/A Rain Light Rain Showers
2:00 PM 80 °F - 58 °F 36% 29.77 in 19 mi SW 13.4 mph - - Rain Light Rain Showers
2:20 PM 75.2 °F - 57.2 °F 53% 29.80 in 6.2 mi WSW 19.6 mph - N/A   Partly Cloudy
2:50 PM 78.8 °F - 57.2 °F 47% 29.80 in 6.2 mi WSW 9.2 mph - N/A   Partly Cloudy
3:20 PM 77.0 °F - 55.4 °F 47% 29.80 in - SSW 4.6 mph - N/A   Clear
3:50 PM 78.8 °F - 57.2 °F 47% 29.77 in 6.2 mi South 5.8 mph - N/A Rain Light Rain
4:20 PM 82.4 °F 82.0 °F 57.2 °F 42% 29.80 in - SW 6.9 mph - N/A   Clear
4:50 PM 82.4 °F 81.7 °F 55.4 °F 39% 29.80 in - SW 16.1 mph - N/A   Clear
5:00 PM 82 °F - 56 °F 31% 29.77 in 19 mi SW 15.7 mph - - Rain Light Rain
5:20 PM 78.8 °F - 57.2 °F 47% 29.80 in - WSW 17.3 mph - N/A   Clear
5:50 PM 77.0 °F - 59.0 °F 54% 29.83 in 6.2 mi WSW 18.4 mph - N/A   Partly Cloudy
6:20 PM 73.4 °F - 60.8 °F 65% 29.83 in 6.2 mi West 13.8 mph - N/A   Partly Cloudy
6:50 PM 71.6 °F - 59.0 °F 64% 29.83 in 6.2 mi West 11.5 mph - N/A   Partly Cloudy
7:20 PM 71.6 °F - 59.0 °F 64% 29.86 in 6.2 mi WSW 9.2 mph - N/A   Partly Cloudy
7:50 PM 71.6 °F - 59.0 °F 64% 29.86 in 6.2 mi WSW 6.9 mph - N/A   Partly Cloudy
8:00 PM 72 °F - 60 °F 56% 29.85 in 10 mi WSW 6.7 mph - -   Partly Cloudy
8:20 PM 69.8 °F - 60.8 °F 73% 29.86 in 6.2 mi WSW 5.8 mph - N/A   Partly Cloudy
8:50 PM 68.0 °F - 60.8 °F 78% 29.89 in - WSW 3.5 mph - N/A   Clear
9:20 PM 66.2 °F - 60.8 °F 83% 29.89 in - SW 5.8 mph - N/A   Clear
9:50 PM 66.2 °F - 60.8 °F 83% 29.89 in - West 3.5 mph - N/A   Clear
10:20 PM 66.2 °F - 60.8 °F 83% 29.89 in - Variable 2.3 mph - N/A   Clear
10:50 PM 64.4 °F - 59.0 °F 83% 29.92 in 5.6 mi West 4.6 mph - N/A   Unknown
11:00 PM 64 °F - 60 °F 82% 29.91 in 6 mi West 4.5 mph - -   Scattered Clouds
11:20 PM 64.4 °F - 59.0 °F 83% 29.92 in 5.6 mi WNW 3.5 mph - N/A   Unknown
11:50 PM 64.4 °F - 59.0 °F 83% 29.92 in 5.6 mi WNW 3.5 mph - N/A   Unknown